Location: �quirre
(50.4736°N, 2.2351°E)
Time: 04:24:20
(UTC+00:00)

Cosmos 2026 Rocket - Pass Details

Date: 07 August 2020
Orbit: 940 x 1001 km, 82.9° (Epoch: 19 September)

Event Time Altitude Azimuth Distance (km) Brightness Sun altitude
Rises 01:39:32 0° 348° (NNW) 3,616 7.8 -19.5°
Reaches altitude 10° 01:42:03 10° 345° (NNW) 2,669 7.0 -19.3°
Maximum altitude 01:48:03 65° 266° (W) 1,038 4.0 -18.9°
Enters shadow 01:51:06 30° 194° (SSW) 1,625 4.6 -18.6°
